Weather History for Owensboro, KY

Change the Weather History Date:

Wednesday, March 27, 2013

  Actual Average Record
Temperature  
Mean Temperature 36 °F -  
Max Temperature 46 °F 62 °F 82 °F (1945)
Min Temperature 27 °F 39 °F 16 °F (1955)
Degree Days  
Heating Degree Days 28    
Moisture  
Dew Point 26 °F    
Average Humidity 64    
Maximum Humidity 88    
Minimum Humidity 44    
Precipitation  
Precipitation 0.00 in - - ()
Sea Level Pressure  
Sea Level Pressure 30.37 in    
Wind  
Wind Speed 6 mph (WNW)    
Max Wind Speed 10 mph    
Max Gust Speed 17 mph    
Visibility 10 miles    
Events      
Averages and records for this station are not official NWS values.
T = Trace of Precipitation, MM = Missing Value Source: NWS Daily Summary

Daily Weather History Graph

Daily Weather History Graph

Search for Another Location

Airport:

Trip Planner

Search our weather history database for the weather conditions in past years. The results will help you decide how hot, cold, wet, or windy it might be!

Date:

Astronomy

Mar. 27, 2013 Rise Set
Actual Time 6:41 AM CDT 7:07 PM CDT
Civil Twilight 6:14 AM CDT 7:33 PM CDT
Nautical Twilight 5:44 AM CDT 8:04 PM CDT
Astronomical Twilight 5:12 AM CDT 8:36 PM CDT
Moon 7:48 PM CDT (3/27) 6:32 AM CDT (3/27)
Length of Visible Light 13h 18m
Length of Day
12h 26m
Full, 100% of the Moon is Illuminated
Mar 27
Full
Apr 2
Last Quarter
Apr 10
New
Apr 18
First Quarter
Apr 25
Full

Hourly Weather History & Observations

Time (CDT) Temp. Windchill Dew Point Humidity Pressure Visibility Wind Dir Wind Speed Gust Speed Precip Events Conditions
12:56 AM 32.0 °F 26.4 °F 27.1 °F 82% 30.36 in 10.0 mi WNW 5.8 mph - N/A   Clear
1:56 AM 32.9 °F 28.5 °F 28.0 °F 82% 30.36 in 10.0 mi West 4.6 mph - N/A   Scattered Clouds
2:56 AM 32.9 °F 27.5 °F 28.0 °F 82% 30.35 in 10.0 mi WNW 5.8 mph - N/A   Partly Cloudy
3:56 AM 31.1 °F 26.4 °F 24.1 °F 75% 30.35 in 10.0 mi NW 4.6 mph - N/A   Clear
4:56 AM 29.1 °F 25.4 °F 23.0 °F 78% 30.36 in 10.0 mi NW 3.5 mph - N/A   Clear
5:56 AM 27.1 °F - 24.1 °F 88% 30.36 in 10.0 mi Calm Calm - N/A   Clear
6:56 AM 27.1 °F 21.8 °F 24.1 °F 88% 30.38 in 10.0 mi West 4.6 mph - N/A   Clear
7:56 AM 32.9 °F 27.5 °F 27.1 °F 79% 30.40 in 10.0 mi West 5.8 mph - N/A   Clear
8:56 AM 38.8 °F 33.2 °F 30.0 °F 71% 30.40 in 10.0 mi WNW 8.1 mph - N/A   Clear
9:56 AM 41.0 °F 35.8 °F 27.1 °F 58% 30.41 in 10.0 mi NW 8.1 mph - N/A   Partly Cloudy
10:56 AM 43.9 °F 38.8 °F 27.1 °F 52% 30.41 in 10.0 mi WNW 9.2 mph 16.1 mph N/A   Mostly Cloudy
11:56 AM 45.0 °F 39.7 °F 26.1 °F 48% 30.40 in 10.0 mi West 10.4 mph 17.3 mph N/A   Scattered Clouds
12:56 PM 45.9 °F 40.8 °F 28.0 °F 50% 30.40 in 10.0 mi West 10.4 mph 16.1 mph N/A   Scattered Clouds
1:56 PM 43.9 °F 38.3 °F 24.1 °F 46% 30.39 in 10.0 mi NW 10.4 mph - N/A   Scattered Clouds
2:56 PM 46.9 °F - 27.1 °F 46% 30.36 in 10.0 mi WNW 10.4 mph - N/A   Partly Cloudy
3:56 PM 46.9 °F - 26.1 °F 44% 30.35 in 10.0 mi NW 8.1 mph - N/A   Partly Cloudy
4:56 PM 45.9 °F 42.3 °F 25.2 °F 44% 30.35 in 10.0 mi WNW 6.9 mph - N/A   Clear
5:56 PM 45.9 °F 41.2 °F 26.1 °F 46% 30.34 in 10.0 mi West 9.2 mph - N/A   Partly Cloudy
6:56 PM 43.0 °F 39.5 °F 26.1 °F 51% 30.34 in 10.0 mi WNW 5.8 mph - N/A   Clear
7:56 PM 41.9 °F 38.2 °F 25.2 °F 52% 30.34 in 10.0 mi NW 5.8 mph - N/A   Clear
8:56 PM 37.9 °F - 27.1 °F 65% 30.35 in 10.0 mi Calm Calm - N/A   Clear
9:56 PM 37.9 °F 35.5 °F 27.1 °F 65% 30.35 in 10.0 mi ENE 3.5 mph - N/A   Clear
10:56 PM 36.9 °F - 28.0 °F 70% 30.34 in 10.0 mi Calm Calm - N/A   Clear
11:56 PM 32.0 °F - 28.0 °F 85% 30.35 in 10.0 mi Calm Calm - N/A   Clear